Volver al catálogo

ARIANE 44L DEB

ActivoHEO
NORAD 24751·DEBRIS·🇫🇷 France

Lanzado Jan 15, 1991 desde Guiana Space Centre

Loading…

Próximos Pases (próximas 24 horas)

TLE

ActualizadoSource: Space-Track

Época: Sep 12, 2026, 23:36 UTC

1 24751U 91003K   26255.98353742  .00000011  00000-0  22429-3 0  9997
2 24751   7.8947 119.8251 6164265 281.7465  19.0335  3.61363228358108

Sigue ARIANE 44L DEB en tiempo real con AllMySat

Download on the App Store